| time (UTC) | temp C | wind direction | speed KPH | gust KPH | rain 1hr cm | rain 24hr cm | rain mn cm | humidity % | barometer mb |
| 20260504223025 | 21 | 77 | 1.6 | 8.0 | 0.00 | 0.00 | 0.00 | 86 | 1016.6 |
| 20260504221510 | 21 | 79 | 1.6 | 6.4 | 0.00 | 0.00 | 0.00 | 86 | 1016.6 |
| 20260504220013 | 21 | 79 | 1.6 | 8.0 | 0.00 | 0.00 | 0.00 | 87 | 1016.7 |
| 20260504214515 | 20 | 56 | 3.2 | 9.7 | 0.00 | 0.00 | 0.00 | 89 | 1016.5 |
| 20260504213023 | 19 | 87 | 1.6 | 4.8 | 0.00 | 0.00 | 0.00 | 91 | 1016.5 |
| 20260504211522 | 18 | 79 | 1.6 | 3.2 | 0.00 | 0.00 | 0.00 | 94 | 1016.3 |
| 20260504210016 | 17 | 88 | 0.0 | 0.0 | 0.00 | 0.00 | 0.00 | 93 | 1016.3 |
| 20260504204528 | 17 | 92 | 1.6 | 3.2 | 0.00 | 0.00 | 0.00 | 93 | 1016.0 |
| 20260504203004 | 17 | 82 | 1.6 | 3.2 | 0.00 | 0.00 | 0.00 | 93 | 1015.8 |
| 20260504201504 | 17 | 89 | 0.0 | 3.2 | 0.00 | 0.00 | 0.00 | 93 | 1015.5 |
| 20260504200004 | 17 | 91 | 0.0 | 1.6 | 0.00 | 0.00 | 0.00 | 92 | 1015.3 |
| 20260504194503 | 18 | 73 | 1.6 | 4.8 | 0.00 | 0.00 | 0.00 | 92 | 1015.1 |
| 20260504193005 | 18 | 74 | 3.2 | 4.8 | 0.00 | 0.00 | 0.00 | 93 | 1015.0 |
| 20260504191504 | 17 | 80 | 1.6 | 3.2 | 0.00 | 0.00 | 0.00 | 93 | 1015.0 |
| 20260504190005 | 17 | 77 | 1.6 | 3.2 | 0.00 | 0.00 | 0.00 | 94 | 1014.9 |
| 20260504184504 | 17 | 80 | 0.0 | 0.0 | 0.00 | 0.00 | 0.00 | 94 | 1014.8 |
| 20260504183008 | 16 | 89 | 0.0 | 0.0 | 0.00 | 0.00 | 0.00 | 93 | 1014.7 |
| 20260504181506 | 17 | 89 | 0.0 | 3.2 | 0.00 | 0.00 | 0.00 | 94 | 1014.6 |
| 20260504180004 | 17 | 89 | 0.0 | 3.2 | 0.00 | 0.00 | 0.00 | 94 | 1014.5 |
| 20260504174507 | 17 | 79 | 1.6 | 3.2 | 0.00 | 0.00 | 0.00 | 94 | 1014.5 |
| 20260504173004 | 17 | 84 | 0.0 | 3.2 | 0.00 | 0.00 | 0.00 | 94 | 1014.4 |
| 20260504171506 | 17 | 77 | 0.0 | 0.0 | 0.00 | 0.00 | 0.00 | 93 | 1014.4 |
| 20260504081510 | 22 | 128 | 0.0 | 0.0 | 0.00 | 1.57 | 1.24 | 90 | 1015.3 |
| 20260504050018 | 26 | 73 | 0.0 | 6.4 | 0.00 | 1.57 | 1.24 | 77 | 1014.4 |
| 20260504044513 | 25 | 103 | 0.0 | 6.4 | 0.00 | 1.57 | 1.24 | 78 | 1014.5 |
| 20260504043014 | 26 | 103 | 1.6 | 6.4 | 0.00 | 1.57 | 1.24 | 77 | 1014.6 |
| 20260504041534 | 26 | 77 | 0.0 | 3.2 | 0.00 | 1.57 | 1.24 | 78 | 1014.6 |
| 20260504040022 | 26 | 49 | 0.0 | 8.0 | 0.00 | 1.57 | 1.24 | 79 | 1014.6 |
| 20260504034518 | 26 | 70 | 0.0 | 4.8 | 0.00 | 1.57 | 1.24 | 78 | 1014.6 |
| 20260504033007 | 26 | 56 | 0.0 | 4.8 | 0.00 | 1.57 | 1.24 | 75 | 1014.7 |
| 20260504031512 | 26 | 307 | 0.0 | 4.8 | 0.00 | 1.57 | 1.24 | 74 | 1014.8 |
| 20260504030016 | 26 | 219 | 0.0 | 9.7 | 0.00 | 1.57 | 1.24 | 78 | 1015.2 |
| 20260504024522 | 25 | 17 | 1.6 | 11.3 | 0.00 | 1.57 | 1.24 | 76 | 1015.6 |
| 20260504023021 | 26 | 12 | 0.0 | 6.4 | 0.00 | 1.57 | 1.24 | 81 | 1015.8 |
| 20260504021520 | 26 | 73 | 0.0 | 9.7 | 0.00 | 1.57 | 1.24 | 80 | 1016.1 |
| 20260504020016 | 26 | 60 | 1.6 | 6.4 | 0.00 | 1.57 | 1.24 | 79 | 1016.3 |
| 20260504014522 | 26 | 229 | 3.2 | 11.3 | 0.00 | 1.57 | 1.24 | 78 | 1016.3 |
| 20260504013028 | 26 | 305 | 0.0 | 9.7 | 0.00 | 1.57 | 1.24 | 78 | 1016.4 |
| 20260504011523 | 26 | 77 | 3.2 | 9.7 | 0.00 | 1.57 | 1.24 | 76 | 1016.9 |
| 20260504010012 | 26 | 256 | 1.6 | 9.7 | 0.00 | 1.57 | 1.24 | 78 | 1016.9 |
| 20260504004515 | 26 | 99 | 1.6 | 6.4 | 0.00 | 1.57 | 1.24 | 78 | 1017.0 |
| 20260504003004 | 26 | 70 | 1.6 | 6.4 | 0.00 | 1.57 | 1.24 | 78 | 1017.0 |
| 20260504001511 | 26 | 82 | 1.6 | 8.0 | 0.00 | 1.57 | 1.24 | 79 | 1017.0 |
| 20260504000008 | 25 | 72 | 1.6 | 9.7 | 0.00 | 1.57 | 1.24 | 82 | 1017.0 |
| 20260503234510 | 25 | 110 | 1.6 | 12.9 | 0.00 | 1.57 | 1.24 | 82 | 1016.9 |
| 20260503233019 | 25 | 80 | 1.6 | 12.9 | 0.00 | 1.57 | 1.24 | 84 | 1017.1 |
| 20260503231504 | 24 | 76 | 3.2 | 11.3 | 0.00 | 1.57 | 1.24 | 84 | 1017.2 |
| 20260503230011 | 23 | 130 | 1.6 | 8.0 | 0.00 | 1.57 | 1.24 | 85 | 1017.0 |